User: anonymous   Login
Location: G�yn�k
(36.6721°N, 30.5542°E)
Time: 11:49:09
(UTC+00:00)
Language:

ADEOS II - Orbit

View from above orbital plane
View from above orbital plane
View from above satellite
View from above satellite

Ground track
Ground track

The orbit data is extracted from the following two-line orbital elements,

1 27597U 02056A   21163.11791349  .00000028  00000-0  29053-4 0  9994
2 27597  98.5644 108.5374 0001844  54.8154 305.3200 14.27503062963124
Epoch (UTC): 12 June 2021 02:49:47
Eccentricity: 0.0001844
inclination: 98.5644°
perigee height: 799 km
apogee height: 801 km
right ascension of ascending node: 108.5374°
argument of perigee: 54.8154°
revolutions per day: 14.27503062
mean anomaly at epoch: 305.3200°
orbit number at epoch: 96312

The dashed part of the orbit path shows where the satellite is in the earth's shadow,  

DLR